Regional Weather Roundup
Issued by NWS

Home | Current Version | Previous Version | Graphics & Text | Print | Product List | Glossary On
Versions: 1 2 3 4 5 6 7 8 9 10 11 12 13 14 15 16 17 18 19 20 21 22 23 24 25 26 27 28 29 30 31 32 33 34 35 36 37 38 39 40 41 42 43 44 45 46 47 48 49 50
000
ASUS43 KLOT 242004
RWRIL

ILLINOIS REGIONAL WEATHER ROUNDUP
NATIONAL WEATHER SERVICE CHICAGO/ROMEOVILLE IL
300 PM CDT SUN SEP 24 2017

NOTE: "FAIR" INDICATES FEW OR NO CLOUDS BELOW 12,000 FEET WITH NO
SIGNIFICANT WEATHER AND/OR OBSTRUCTIONS TO VISIBILITY.

* THESE STATIONS ARE NOT UNDER NWS QUALITY CONTROL. THEY ALSO MAY NOT
  REPORT WEATHER SUCH AS PRECIPITATION OR FOG.

ILZ001-002-007-009-015-016-024-242100-
NORTHWEST ILLINOIS

CITY           SKY/WX    TMP DP  RH WIND       PRES   REMARKS
MOLINE         MOSUNNY   90  61  37 SW9       29.98F HX  90
STERLING*      SUNNY     91  62  37 VRB7      30.01F HX  91
SAVANNA*       SUNNY     91  61  37 SW9       30.00F HX  90
$$

ILZ003-004-008-010-011-017-018-242100-
NORTH CENTRAL ILLINOIS

CITY           SKY/WX    TMP DP  RH WIND       PRES   REMARKS
ROCKFORD       SUNNY     90  58  33 S15G22    30.03F HX  89
FREEPORT*      SUNNY     88  59  36 SW12      30.03F HX  87
ROCHELLE*      SUNNY     90  61  38 S8        30.03F HX  89
DE KALB*       SUNNY     89  62  40 S10       30.04F HX  89
$$

ILZ005-006-012>014-019>023-242100-
NORTHEAST ILLINOIS

CITY           SKY/WX    TMP DP  RH WIND       PRES   REMARKS
CHICAGO-OHARE  MOSUNNY   91  58  32 SE9       30.02F HX  90
CHICAGO-MIDWAY MOSUNNY   91  59  33 S10       30.02F HX  90
AURORA         MOSUNNY   90  62  39 S9G16     30.03F HX  90
LANSING*       SUNNY     91  64  40 SE8       30.03F HX  91
JOLIET*        SUNNY     91  62  37 S9        30.02F HX  92
WAUKEGAN       SUNNY     85  66  53 SE9       30.03F HX  87
DUPAGE AIRPORT MOSUNNY   90  61  37 SE13G20   30.03F HX  90
KANKAKEE*      MOSUNNY   89  61  38 SE7       30.04F HX  89
WHEELING       SUNNY     91  64  40 SE9G17    30.03F HX  92
MORRIS*        SUNNY     91  59  35 S5        30.01F HX  90
NORTHERLY ISL    N/A     80  67  64 E9          N/A  HX  82
$$

LMZ740>746-242100-
SOUTHERN LAKE MICHIGAN

STATION/POSITION SKY/WX   TEMP    WIND        PRES    VSBY  WAVE
                          AIR SEA DIR/SP/G                  HT/PER
                          (F)     (DEG/KT/KT) (MB)    (MI)  (FT/S)
SOUTHERN BUOY              73 71  140/  6/  6 1018.4          1
WILMETTE HARBOR            75 71  100/  8/ 10   N/A           1/ 3
HARRISON CRIB              77      80/ 11/ 12   N/A
BURNHAM HARBOR             79                   N/A
CALUMET HARBOR             80      40/  6/  9 1016.7F
BURNS HARBOR               77      10/ 12/ 14 1017.3F
MICHIGAN CITY              80      20/  7/  8   N/A
MICHIGAN CITY 6N           77 74   40/  6/ 10   N/A           1
ST. JOSEPH                 77 74   10/  6/  6 1017.3F         0
$$

ILZ025>027-034>036-040-047-049-050-058-095>099-242100-
WEST-CENTRAL ILLINOIS

CITY           SKY/WX    TMP DP  RH WIND       PRES   REMARKS
QUINCY         MOSUNNY   90  62  39 VRB7      29.98F HX  90
GALESBURG*     SUNNY     90  63  41 S8        30.00F HX  90
MACOMB*        MOSUNNY   89  59  36 S7        30.01F HX  88
$$

ILZ028>032-037-038-041>044-048-051>054-059>061-242100-
CENTRAL ILLINOIS

CITY           SKY/WX    TMP DP  RH WIND       PRES   REMARKS
BLOOMINGTON    SUNNY     89  62  40 S6        30.03F HX  89
DECATUR        SUNNY     91  56  30 VRB3      30.01F HX  89
PEORIA         MOSUNNY   90  63  40 SE8       30.00F HX  91
LACON*         MOSUNNY   90  64  41 SW7       30.00F HX  91
LINCOLN*       PTSUNNY   92  63  37 CALM      30.00F HX  93
SPRINGFIELD    MOSUNNY   92  63  38 SE8       30.00F HX  93
TAYLORVILLE    NOT AVBL
$$

ILZ033-039-045-046-055>057-062-063-242100-
EAST-CENTRAL ILLINOIS

CITY           SKY/WX    TMP DP  RH WIND       PRES   REMARKS
CHAMPAIGN      MOSUNNY   92  55  28 VRB5      30.02  HX  90
MATTOON        SUNNY     89  60  37 S5        30.00F HX  89
PARIS*         SUNNY     92  61  34 E7        30.03F HX  92
$$

ILZ079-100>102-242100-
SOUTHWEST ILLINOIS

CITY           SKY/WX    TMP DP  RH WIND       PRES   REMARKS
ALTON          MOSUNNY   91  68  46 S5        29.98F HX  95
BELLEVILLE     SUNNY     92  62  36 CALM      29.96F HX  93
CAHOKIA*       MOSUNNY   92  62  36 VRB3      29.97F HX  92
SPARTA*        MOSUNNY   91  63  39 SE6       29.99F HX  92
$$

ILZ064>066-069>071-074>076-080>082-084>086-088>090-092>094-242100-
SOUTH-CENTRAL ILLINOIS

CITY           SKY/WX    TMP DP  RH WIND       PRES   REMARKS
CARBONDALE     CLOUDY    89  63  41 E3        29.97F HX  90
CAIRO*         MOSUNNY   90  61  38 E7        29.97F HX  90
EFFINGHAM*     MOSUNNY   94  57  28 E12       30.01F HX  93
MARION         PTSUNNY   93  61  33 W6        29.98F HX  93
MT. VERNON       N/A     93  60  33 VRB5      29.98F HX  93
CENTRALIA*     PTSUNNY   94  62  34 S5        29.98F HX  94
SALEM*         MOSUNNY   94  55  27 CALM      29.99F HX  92
METROPOLIS*    SUNNY     92  67  43 SE7       29.98F HX  95
$$

ILZ067-068-072-073-078-083-087-091-242100-
SOUTHEAST ILLINOIS

CITY           SKY/WX    TMP DP  RH WIND       PRES   REMARKS
LAWRENCEVILLE  PTSUNNY   93  60  33 E7        30.00F HX  93
FLORA*         SUNNY     94  59  31 E6        29.99F HX  93
FAIRFIELD*     SUNNY     90  59  35 CALM      29.97F HX  89
HARRISBURG*    MOSUNNY   90  65  43 E9        29.99F HX  92
ROBINSON*      MOSUNNY   91  60  34 E6        30.01F HX  91
CARMI*         MOSUNNY   92  61  35 E7        29.98F HX  92
$$

ABBREVIATIONS USED IN REMARKS
   TC - TEMPERATURE IN CELSIUS
  WCI - WIND CHILL INDEX
   HX - HEAT INDEX
  VSB - VISIBILITY
$$





USA.gov is the U.S. government's official web portal to all federal, state and local government web resources and services.